• In Netherlands
  • List of Countries
  • For 7 days
  • Water Temperature
  • Satellite Maps
  • Weather Map
  • Weather Widgets
  • user-avatar
    Login

    Hourly Weather Antwerp

    Today, 24 May, Wednesday

    Time Temperature Precipitation Wind Pressure Humidity
    00:00 +13°C° 0 mm 1 mps 767 mmHg 89%
    01:00 +13°C° 0 mm 1 mps 767 mmHg 91%
    02:00 +13°C° 0 mm 2 mps 767 mmHg 92%
    03:00 +13°C° 0 mm 2 mps 767 mmHg 93%
    04:00 +14°C° 0 mm 2 mps 767 mmHg 92%
    05:00 +15°C° 0 mm 2 mps 767 mmHg 90%
    06:00 +16°C° 0 mm 2 mps 767 mmHg 89%
    07:00 +18°C° 0 mm 3 mps 767 mmHg 83%
    08:00 +19°C° 0 mm 3 mps 767 mmHg 77%
    09:00 +21°C° 0 mm 3 mps 767 mmHg 71%
    10:00 +21°C° 0 mm 4 mps 767 mmHg 67%
    11:00 +22°C° 0 mm 4 mps 767 mmHg 63%
    12:00 +23°C° 0 mm 4 mps 767 mmHg 60%
    13:00 +22°C° 0 mm 5 mps 767 mmHg 61%
    14:00 +22°C° 0 mm 5 mps 767 mmHg 62%
    15:00 +22°C° 0 mm 5 mps 767 mmHg 63%
    16:00 +21°C° 0 mm 5 mps 767 mmHg 68%
    17:00 +20°C° 0 mm 4 mps 767 mmHg 73%
    18:00 +19°C° 0 mm 4 mps 767 mmHg 78%
    19:00 +17°C° 0 mm 3 mps 767 mmHg 83%
    20:00 +16°C° 0 mm 3 mps 768 mmHg 89%
    21:00 +14°C° 0 mm 2 mps 768 mmHg 94%
    22:00 +13°C° 0 mm 2 mps 768 mmHg 94%
    23:00 +13°C° 0 mm 2 mps 768 mmHg 95%

    Tomorrow, 25 May, Thursday

    Time Temperature Precipitation Wind Pressure Humidity
    00:00 +12°C° 0 mm 2 mps 768 mmHg 95%
    01:00 +12°C° 0 mm 2 mps 768 mmHg 95%
    02:00 +10°C° 0 mm 2 mps 768 mmHg 95%
    03:00 +10°C° 0 mm 2 mps 768 mmHg 95%
    04:00 +12°C° 0 mm 2 mps 768 mmHg 91%
    05:00 +13°C° 0 mm 2 mps 768 mmHg 87%
    06:00 +14°C° 0 mm 2 mps 768 mmHg 84%
    07:00 +16°C° 0 mm 2 mps 768 mmHg 77%
    08:00 +18°C° 0 mm 2 mps 768 mmHg 71%
    09:00 +19°C° 0 mm 2 mps 768 mmHg 65%
    10:00 +20°C° 0 mm 2 mps 768 mmHg 63%
    11:00 +21°C° 0 mm 3 mps 767 mmHg 61%
    12:00 +24°C° 0 mm 3 mps 767 mmHg 59%
    13:00 +24°C° 0 mm 3 mps 767 mmHg 61%
    14:00 +24°C° 0 mm 3 mps 767 mmHg 62%
    15:00 +23°C° 0 mm 4 mps 766 mmHg 63%
    16:00 +22°C° 0 mm 3 mps 766 mmHg 67%
    17:00 +22°C° 0 mm 3 mps 766 mmHg 71%
    18:00 +21°C° 0 mm 3 mps 766 mmHg 75%
    19:00 +20°C° 0 mm 3 mps 766 mmHg 81%
    20:00 +18°C° 0 mm 3 mps 766 mmHg 86%
    21:00 +16°C° 0 mm 3 mps 766 mmHg 92%
    22:00 +16°C° 0 mm 3 mps 766 mmHg 93%
    23:00 +14°C° 0 mm 3 mps 766 mmHg 95%

    Day after tomorrow, 26 May, Friday

    Time Temperature Precipitation Wind Pressure Humidity
    00:00 +13°C° 0 mm 3 mps 766 mmHg 96%
    01:00 +13°C° 0 mm 3 mps 766 mmHg 96%
    02:00 +13°C° 0 mm 3 mps 766 mmHg 97%
    03:00 +12°C° 0 mm 3 mps 766 mmHg 97%
    04:00 +13°C° 0 mm 3 mps 766 mmHg 95%
    05:00 +14°C° 0 mm 3 mps 766 mmHg 92%
    06:00 +16°C° 0 mm 3 mps 766 mmHg 90%
    07:00 +18°C° 0 mm 3 mps 766 mmHg 84%
    08:00 +19°C° 0 mm 4 mps 765 mmHg 77%
    09:00 +21°C° 0 mm 4 mps 765 mmHg 71%
    10:00 +22°C° 0 mm 4 mps 765 mmHg 68%
    11:00 +23°C° 0 mm 4 mps 765 mmHg 65%
    12:00 +25°C° 0 mm 4 mps 764 mmHg 62%
    13:00 +25°C° 0 mm 5 mps 764 mmHg 62%
    14:00 +25°C° 0 mm 5 mps 764 mmHg 63%
    15:00 +26°C° 0 mm 5 mps 763 mmHg 63%
    16:00 +25°C° 0 mm 4 mps 763 mmHg 67%
    17:00 +23°C° 0 mm 4 mps 763 mmHg 71%
    18:00 +23°C° 0 mm 4 mps 762 mmHg 75%
    19:00 +21°C° 0 mm 4 mps 763 mmHg 80%
    20:00 +20°C° 0 mm 4 mps 763 mmHg 84%
    21:00 +18°C° 0 mm 4 mps 763 mmHg 89%
    22:00 +18°C° 0 mm 4 mps 763 mmHg 90%
    23:00 +17°C° 0 mm 4 mps 763 mmHg 91%

    27 May, Saturday

    Time Temperature Precipitation Wind Pressure Humidity
    00:00 +15°C° 0 mm 4 mps 763 mmHg 92%
    01:00 +15°C° 0 mm 4 mps 762 mmHg 93%
    02:00 +14°C° 0 mm 3 mps 762 mmHg 93%
    03:00 +14°C° 0 mm 3 mps 762 mmHg 93%
    04:00 +15°C° 0 mm 4 mps 762 mmHg 88%
    05:00 +17°C° 0 mm 4 mps 762 mmHg 83%
    06:00 +17°C° 0 mm 5 mps 762 mmHg 79%
    07:00 +20°C° 0 mm 5 mps 762 mmHg 73%
    08:00 +22°C° 0 mm 5 mps 762 mmHg 68%
    09:00 +23°C° 0 mm 6 mps 762 mmHg 62%
    10:00 +24°C° 0 mm 6 mps 761 mmHg 60%
    11:00 +27°C° 0 mm 6 mps 761 mmHg 57%
    12:00 +28°C° 0 mm 6 mps 761 mmHg 55%
    13:00 +28°C° 0 mm 6 mps 761 mmHg 55%
    14:00 +28°C° 0 mm 5 mps 761 mmHg 56%
    15:00 +28°C° 0 mm 5 mps 761 mmHg 56%
    16:00 +28°C° 0.1 mm 4 mps 761 mmHg 63%
    17:00 +27°C° 0.1 mm 4 mps 761 mmHg 69%
    18:00 +26°C° 0.1 mm 3 mps 761 mmHg 75%
    19:00 +24°C° 0.3 mm 3 mps 761 mmHg 80%
    20:00 +22°C° 0.3 mm 3 mps 761 mmHg 85%
    21:00 +20°C° 0.3 mm 3 mps 762 mmHg 90%
    22:00 +19°C° 0.7 mm 3 mps 762 mmHg 91%
    23:00 +19°C° 0.7 mm 2 mps 762 mmHg 93%

    28 May, Sunday

    Time Temperature Precipitation Wind Pressure Humidity
    00:00 +18°C° 0.7 mm 2 mps 762 mmHg 94%
    01:00 +18°C° 0.2 mm 2 mps 762 mmHg 94%
    02:00 +17°C° 0.2 mm 2 mps 762 mmHg 95%
    03:00 +18°C° 0.2 mm 1 mps 762 mmHg 95%
    04:00 +18°C° 0.2 mm 1 mps 762 mmHg 94%
    05:00 +19°C° 0.2 mm 1 mps 762 mmHg 92%
    06:00 +19°C° 0.2 mm 1 mps 763 mmHg 90%
    07:00 +21°C° 0 mm 1 mps 763 mmHg 86%
    08:00 +22°C° 0 mm 1 mps 763 mmHg 82%
    09:00 +24°C° 0 mm 1 mps 763 mmHg 79%
    10:00 +24°C° 0.2 mm 1 mps 763 mmHg 76%
    11:00 +25°C° 0.2 mm 2 mps 763 mmHg 74%
    12:00 +26°C° 0.2 mm 2 mps 762 mmHg 72%
    13:00 +26°C° 0.6 mm 2 mps 762 mmHg 71%
    14:00 +27°C° 0.6 mm 3 mps 762 mmHg 70%
    15:00 +27°C° 0.6 mm 3 mps 762 mmHg 68%
    16:00 +27°C° 0.2 mm 3 mps 762 mmHg 71%
    17:00 +27°C° 0.2 mm 3 mps 762 mmHg 74%
    18:00 +27°C° 0.2 mm 2 mps 762 mmHg 78%
    19:00 +25°C° 0.2 mm 3 mps 762 mmHg 81%
    20:00 +24°C° 0.2 mm 3 mps 762 mmHg 85%
    21:00 +21°C° 0.2 mm 3 mps 762 mmHg 88%
    22:00 +21°C° 0.7 mm 3 mps 762 mmHg 89%
    23:00 +20°C° 0.7 mm 3 mps 762 mmHg 89%

    29 May, Monday

    Time Temperature Precipitation Wind Pressure Humidity
    00:00 +20°C° 0.7 mm 2 mps 762 mmHg 89%
    01:00 +20°C° 0.1 mm 2 mps 761 mmHg 89%
    02:00 +19°C° 0.1 mm 3 mps 761 mmHg 89%
    03:00 +19°C° 0.1 mm 3 mps 760 mmHg 89%
    04:00 +20°C° 0 mm 3 mps 760 mmHg 87%
    05:00 +20°C° 0 mm 2 mps 760 mmHg 86%
    06:00 +21°C° 0 mm 2 mps 760 mmHg 85%
    07:00 +24°C° 0 mm 2 mps 760 mmHg 79%
    08:00 +25°C° 0 mm 3 mps 760 mmHg 74%
    09:00 +27°C° 0 mm 3 mps 760 mmHg 68%
    10:00 +28°C° 0 mm 3 mps 759 mmHg 65%
    11:00 +29°C° 0 mm 3 mps 759 mmHg 62%
    12:00 +30°C° 0 mm 3 mps 759 mmHg 58%
    13:00 +30°C° 0.1 mm 3 mps 758 mmHg 60%
    14:00 +30°C° 0.1 mm 3 mps 758 mmHg 61%
    15:00 +31°C° 0.1 mm 3 mps 758 mmHg 62%
    16:00 +29°C° 0.9 mm 3 mps 758 mmHg 69%
    17:00 +28°C° 0.9 mm 3 mps 758 mmHg 77%
    18:00 +26°C° 0.9 mm 3 mps 758 mmHg 84%
    19:00 +25°C° 0.3 mm 3 mps 758 mmHg 88%
    20:00 +22°C° 0.3 mm 3 mps 759 mmHg 92%
    21:00 +20°C° 0.3 mm 3 mps 759 mmHg 96%
    22:00 +20°C° 0 mm 3 mps 759 mmHg 96%
    23:00 +19°C° 0 mm 3 mps 759 mmHg 96%
    Show more